Time,TemperatureF,DewpointF,PressureIn,WindDirection,WindDirectionDegrees,WindSpeedMPH,WindSpeedGustMPH,Humidity,HourlyPrecipIn,Conditions,Clouds,dailyrainin,SoftwareType,DateUTC
2013-03-06 12:00:00,35.0,-99.9,30.10,NE,50,8.0,14.0,-999,-99.99,,,-99.99,,2013-03-06 17:00:00,
2013-03-06 12:22:00,35.0,-99.9,30.10,NE,50,8.0,14.0,-999,-99.99,,,-99.99,,2013-03-06 17:22:00,
2013-03-06 12:32:00,35.0,-99.9,30.10,NE,50,8.0,14.0,-999,-99.99,,,-99.99,,2013-03-06 17:32:00,
2013-03-06 12:42:00,35.0,-99.9,30.10,NE,50,8.0,14.0,-999,-99.99,,,-99.99,,2013-03-06 17:42:00,
2013-03-06 12:53:00,35.0,-99.9,30.10,NE,50,8.0,14.0,-999,-99.99,,,-99.99,,2013-03-06 17:53:00,
2013-03-06 13:00:00,36.0,-99.9,30.10,NE,50,8.0,15.0,-999,-99.99,,,-99.99,,2013-03-06 18:00:00,
2013-03-06 13:29:00,36.0,-99.9,30.10,NE,50,8.0,15.0,-999,-99.99,,,-99.99,,2013-03-06 18:29:00,
2013-03-06 13:42:00,36.0,-99.9,30.10,NE,50,8.0,15.0,-999,-99.99,,,-99.99,,2013-03-06 18:42:00,
2013-03-06 13:53:00,36.0,-99.9,30.10,NE,50,8.0,15.0,-999,-99.99,,,-99.99,,2013-03-06 18:53:00,
2013-03-06 14:00:00,39.0,-99.9,30.10,NE,40,6.0,11.0,-999,-99.99,,,-99.99,,2013-03-06 19:00:00,
2013-03-06 14:22:00,39.0,-99.9,30.10,NE,40,6.0,11.0,-999,-99.99,,,-99.99,,2013-03-06 19:22:00,
2013-03-06 14:33:00,39.0,-99.9,30.10,NE,40,6.0,11.0,-999,-99.99,,,-99.99,,2013-03-06 19:33:00,
2013-03-06 14:43:00,39.0,-99.9,30.10,NE,40,6.0,11.0,-999,-99.99,,,-99.99,,2013-03-06 19:43:00,
2013-03-06 14:53:00,39.0,-99.9,30.10,NE,40,6.0,11.0,-999,-99.99,,,-99.99,,2013-03-06 19:53:00,
2013-03-06 15:00:00,37.0,-99.9,30.11,NE,50,6.0,14.0,-999,-99.99,,,-99.99,,2013-03-06 20:00:00,
2013-03-06 15:23:00,37.0,-99.9,30.11,NE,50,6.0,14.0,-999,-99.99,,,-99.99,,2013-03-06 20:23:00,
2013-03-06 15:33:00,37.0,-99.9,30.11,NE,50,6.0,14.0,-999,-99.99,,,-99.99,,2013-03-06 20:33:00,
2013-03-06 15:43:00,37.0,-99.9,30.11,NE,50,6.0,14.0,-999,-99.99,,,-99.99,,2013-03-06 20:43:00,
2013-03-06 15:53:00,37.0,-99.9,30.11,NE,50,6.0,14.0,-999,-99.99,,,-99.99,,2013-03-06 20:53:00,
2013-03-06 16:00:00,37.0,-99.9,30.11,NE,50,6.0,10.0,-999,-99.99,,,-99.99,,2013-03-06 21:00:00,
2013-03-06 16:23:00,37.0,-99.9,30.11,NE,50,6.0,10.0,-999,-99.99,,,-99.99,,2013-03-06 21:23:00,
2013-03-06 16:33:00,37.0,-99.9,30.11,NE,50,6.0,10.0,-999,-99.99,,,-99.99,,2013-03-06 21:33:00,
2013-03-06 16:43:00,37.0,-99.9,30.11,NE,50,6.0,10.0,-999,-99.99,,,-99.99,,2013-03-06 21:43:00,
2013-03-06 16:52:00,37.0,-99.9,30.11,NE,50,6.0,10.0,-999,-99.99,,,-99.99,,2013-03-06 21:52:00,
2013-03-06 17:00:00,37.0,-99.9,30.12,NE,50,6.0,10.0,-999,-99.99,,,-99.99,,2013-03-06 22:00:00,
2013-03-06 17:22:00,37.0,-99.9,30.12,NE,50,6.0,10.0,-999,-99.99,,,-99.99,,2013-03-06 22:22:00,
2013-03-06 17:32:00,37.0,-99.9,30.12,NE,50,6.0,10.0,-999,-99.99,,,-99.99,,2013-03-06 22:32:00,
2013-03-06 17:42:00,37.0,-99.9,30.12,NE,50,6.0,10.0,-999,-99.99,,,-99.99,,2013-03-06 22:42:00,
2013-03-06 17:52:00,37.0,-99.9,30.12,NE,50,6.0,10.0,-999,-99.99,,,-99.99,,2013-03-06 22:52:00,
2013-03-06 18:00:00,37.0,-99.9,30.13,ENE,60,5.0,8.0,-999,-99.99,,,-99.99,,2013-03-06 23:00:00,
2013-03-06 18:22:00,37.0,-99.9,30.13,ENE,60,5.0,8.0,-999,-99.99,,,-99.99,,2013-03-06 23:22:00,
2013-03-06 18:32:00,37.0,-99.9,30.13,ENE,60,5.0,8.0,-999,-99.99,,,-99.99,,2013-03-06 23:32:00,
2013-03-06 18:42:00,37.0,-99.9,30.13,ENE,60,5.0,8.0,-999,-99.99,,,-99.99,,2013-03-06 23:42:00,
2013-03-06 18:52:00,37.0,-99.9,30.13,ENE,60,5.0,8.0,-999,-99.99,,,-99.99,,2013-03-06 23:52:00,
2013-03-06 19:00:00,38.0,-99.9,30.14,North,0,0.0,6.0,-999,-99.99,,,-99.99,,2013-03-07 00:00:00,
2013-03-06 19:22:00,38.0,-99.9,30.14,North,0,0.0,6.0,-999,-99.99,,,-99.99,,2013-03-07 00:22:00,
2013-03-06 19:32:00,38.0,-99.9,30.14,North,0,0.0,6.0,-999,-99.99,,,-99.99,,2013-03-07 00:32:00,
2013-03-06 19:42:00,38.0,-99.9,30.14,North,0,0.0,6.0,-999,-99.99,,,-99.99,,2013-03-07 00:42:00,
2013-03-06 19:52:00,38.0,-99.9,30.14,North,0,0.0,6.0,-999,-99.99,,,-99.99,,2013-03-07 00:52:00,
2013-03-06 20:00:00,36.0,-99.9,30.15,NNE,20,1.0,2.0,-999,-99.99,,,-99.99,,2013-03-07 01:00:00,
2013-03-06 20:22:00,36.0,-99.9,30.15,NNE,20,1.0,2.0,-999,-99.99,,,-99.99,,2013-03-07 01:22:00,
2013-03-06 20:32:00,36.0,-99.9,30.15,NNE,20,1.0,2.0,-999,-99.99,,,-99.99,,2013-03-07 01:32:00,
2013-03-06 20:42:00,36.0,-99.9,30.15,NNE,20,1.0,2.0,-999,-99.99,,,-99.99,,2013-03-07 01:42:00,
2013-03-06 20:52:00,36.0,-99.9,30.15,NNE,20,1.0,2.0,-999,-99.99,,,-99.99,,2013-03-07 01:52:00,
2013-03-06 23:00:00,37.0,-99.9,30.16,NE,50,3.0,7.0,-999,-99.99,,,-99.99,,2013-03-07 04:00:00,
2013-03-06 23:22:00,37.0,-99.9,30.16,NE,50,3.0,7.0,-999,-99.99,,,-99.99,,2013-03-07 04:22:00,
2013-03-06 23:32:00,37.0,-99.9,30.16,NE,50,3.0,7.0,-999,-99.99,,,-99.99,,2013-03-07 04:32:00,
2013-03-06 23:42:00,37.0,-99.9,30.16,NE,50,3.0,7.0,-999,-99.99,,,-99.99,,2013-03-07 04:42:00,
2013-03-06 23:52:00,37.0,-99.9,30.16,NE,50,3.0,7.0,-999,-99.99,,,-99.99,,2013-03-07 04:52:00,